{"data":{"norad_id":67117,"intl_designator":"2025-299R","name":"STARLINK-35674","alt_names":[],"object_type":"PAYLOAD","status":"ACTIVE","operator":null,"country":"US","launch_date":"2025-12-15","launch_site_code":"AFETR","launch_vehicle":null,"mission":null,"orbit_class":"UNKNOWN","rcs_meters":null,"size_class":null,"mass_kg":null,"dimensions":null,"purposes":["comms"],"wikipedia_slug":null,"has_3d_model":false,"image_url":null,"decayed_at":null,"tle_current":{"epoch":"2026-09-20T09:23:39.657408Z","epoch_age_seconds":87910,"freshness":"FRESH","line1":"1 67117U 25299R   26263.39143122  .00011632  00000+0  43150-3 0  9991","line2":"2 67117  42.9992 149.3941 0000510  22.2288 337.8586 15.27584285 42890","mean_motion":15.27584285,"eccentricity":5.1e-5,"inclination_deg":42.9992,"raan_deg":149.3941,"arg_perigee_deg":22.2288,"mean_anomaly_deg":337.8586,"bstar":0.0004315,"rev_number":4289,"period_min":94.266484287641,"perigee_km":482.6863454016,"apogee_km":483.38618507465,"semimajor_km":6861.1732652381,"source":"CELESTRAK","updated_at":"2026-09-21T09:00:36.106723Z"}}}